Location: Observatory Park - Geauga Park District
(41.5832°N, 81.0716°W)
Time: 11:52:56
(UTC-04:00)

ISS - Visible Passes

Search period start: 12 May 2021 00:00
Search period end: 22 May 2021 00:00
Orbit: 417 x 422 km, 51.6° (Epoch: 12 May)

Date Brightness Start Highest point End Pass type
(mag) Time Alt. Az. Time Alt. Az. Time Alt. Az.
12 May -0.5 01:29:58 13° NNE 01:29:58 13° NNE 01:30:30 10° NE visible
12 May -0.6 03:03:37 10° NNW 03:05:41 15° N 03:07:45 10° NE visible
12 May -1.7 04:40:14 10° NW 04:43:18 31° NNE 04:46:20 10° E visible
13 May -0.6 02:16:42 12° NNW 02:18:00 15° N 02:20:01 10° NE visible
13 May -1.2 03:52:55 10° NW 03:55:42 23° NNE 03:58:30 10° ENE visible
13 May -3.8 05:29:26 10° WNW 05:32:48 70° SW 05:36:08 10° SE visible
13 May -1.6 22:12:51 10° SSW 22:13:28 14° SSW 22:13:28 14° SSW visible
14 May -0.6 01:30:10 15° N 01:30:19 15° N 01:32:24 10° NNE visible
14 May -0.9 03:05:35 10° NNW 03:08:05 19° NNE 03:10:36 10° ENE visible
14 May -3.5 04:42:00 10° NW 04:45:22 70° NNE 04:48:43 10° ESE visible
14 May -2.5 21:26:04 10° S 21:28:38 21° SE 21:31:13 10° E visible
14 May -2.8 23:01:58 10° WSW 23:05:13 49° NNW 23:08:31 10° NE visible
15 May -0.8 00:40:21 10° NW 00:42:38 17° N 00:44:56 10° NNE visible
15 May -0.7 02:18:11 10° NNW 02:20:26 16° N 02:22:41 10° NE visible
15 May -2.6 03:54:37 10° NW 03:57:53 44° NNE 04:01:08 10° ESE visible
15 May -2.6 05:31:47 10° W 05:34:32 23° SW 05:37:17 10° S visible
15 May -3.7 22:14:24 10° WSW 22:17:45 79° NW 22:21:07 10° NE visible
15 May -1.0 23:52:26 10° WNW 23:54:59 20° NNW 23:57:34 10° NE visible
16 May -0.6 01:30:41 10° NNW 01:32:45 15° N 01:34:49 10° NE visible
16 May -1.8 03:07:18 10° NW 03:10:21 31° NNE 03:13:23 10° E visible
16 May -3.3 04:44:02 10° WNW 04:47:13 39° SW 04:50:23 10° SSE visible
16 May -3.8 21:27:02 10° SW 21:30:20 61° SE 21:33:39 10° ENE visible
16 May -1.4 23:04:32 10° WNW 23:07:22 25° NNW 23:10:13 10° NE visible
17 May -0.5 00:43:04 10° NW 00:45:04 15° N 00:47:04 10° NE visible
17 May -1.2 02:19:58 10° NW 02:26:41 - E 02:21:42 20° N visible
17 May -3.8 04:00:15 60° S 04:00:15 60° S 04:03:11 10° SE visible
17 May -1.9 22:16:43 10° W 22:19:48 33° NNW 22:22:53 10° NE visible
17 May -0.6 23:55:17 10° NW 23:57:22 15° N 23:59:28 10° NNE visible
18 May -0.9 01:32:38 10° NNW 01:34:32 18° N 01:34:32 18° N visible
18 May -2.7 21:29:01 10° WSW 21:32:16 48° NNW 21:35:33 10° NE visible
18 May -0.7 23:07:24 10° NW 23:09:42 17° N 23:11:59 10° NNE visible
19 May -0.9 00:45:14 10° NNW 00:47:29 16° N 00:48:13 15° NNE visible
19 May -0.9 22:19:29 10° WNW 22:22:02 20° NNW 22:24:36 10° NNE visible
19 May -0.7 23:57:44 10° NNW 23:59:48 15° N 00:01:51 10° NE visible
20 May -0.8 01:34:20 10° NW 01:35:01 14° NW 01:35:01 14° NW visible
20 May -1.3 21:31:35 10° WNW 21:34:25 24° NNW 21:37:15 10° NE visible
20 May -0.7 23:10:06 10° NW 23:12:06 15° N 23:14:06 10° NE visible
21 May -1.1 00:47:00 10° NW 00:48:57 21° N 00:48:57 21° N visible
21 May -0.8 22:22:19 10° NW 22:24:24 15° N 22:26:29 10° NNE visible
